TimeCEST,TemperatureF,Dew PointF,Humidity,Sea Level PressureIn,VisibilityMPH,Wind Direction,Wind SpeedMPH,Gust SpeedMPH,PrecipitationIn,Events,Conditions,WindDirDegrees,DateUTC
12:00 AM,78.8,69.8,74,29.98,6.2,SW,6.9,-,N/A,,Partly Cloudy,220,2013-08-22 22:00:00
12:30 AM,78.8,68.0,69,29.98,6.2,NW,4.6,-,N/A,,Scattered Clouds,320,2013-08-22 22:30:00
1:00 AM,77.0,68.0,74,29.98,6.2,NNW,3.5,-,N/A,,Scattered Clouds,340,2013-08-22 23:00:00
1:30 AM,77.0,68.0,74,29.98,6.2,NW,2.3,-,N/A,,Scattered Clouds,310,2013-08-22 23:30:00
2:00 AM,77,69,71,29.99,19,Calm,Calm,,,,Partly Cloudy,,2013-08-23 00:00:00
2:00 AM,77.0,68.0,74,29.98,6.2,Calm,Calm,-,N/A,,Scattered Clouds,0,2013-08-23 00:00:00
2:30 AM,77.0,68.0,74,29.98,6.2,NW,2.3,-,N/A,,Scattered Clouds,310,2013-08-23 00:30:00
3:00 AM,75.2,68.0,78,29.98,6.2,NW,3.5,-,N/A,,Scattered Clouds,320,2013-08-23 01:00:00
3:30 AM,75.2,68.0,78,29.98,6.2,NW,3.5,-,N/A,,Scattered Clouds,320,2013-08-23 01:30:00
4:00 AM,75.2,68.0,78,29.98,6.2,NW,4.6,-,N/A,,Scattered Clouds,320,2013-08-23 02:00:00
4:30 AM,73.4,68.0,83,29.98,6.2,NNW,5.8,-,N/A,,Scattered Clouds,330,2013-08-23 02:30:00
5:00 AM,73.4,68.0,83,29.98,6.2,NNW,8.1,-,N/A,,Scattered Clouds,330,2013-08-23 03:00:00
5:30 AM,73.4,68.0,83,29.98,6.2,NNW,6.9,-,N/A,,Scattered Clouds,330,2013-08-23 03:30:00
6:00 AM,73.4,68.0,83,29.98,6.2,NNW,8.1,-,N/A,,Scattered Clouds,330,2013-08-23 04:00:00
6:30 AM,73.4,66.2,78,29.98,6.2,NW,5.8,-,N/A,,Scattered Clouds,320,2013-08-23 04:30:00
7:00 AM,71.6,66.2,83,29.98,6.2,NW,5.8,-,N/A,,Partly Cloudy,320,2013-08-23 05:00:00
7:30 AM,71.6,66.2,83,29.98,6.2,NNW,6.9,-,N/A,,Partly Cloudy,330,2013-08-23 05:30:00
8:00 AM,73.4,64.4,73,29.98,6.2,NNW,8.1,-,N/A,,Partly Cloudy,330,2013-08-23 06:00:00
8:30 AM,73.4,66.2,78,29.98,6.2,NNW,8.1,-,N/A,,Partly Cloudy,330,2013-08-23 06:30:00
9:00 AM,75.2,66.2,73,29.98,6.2,NNW,9.2,-,N/A,,Partly Cloudy,330,2013-08-23 07:00:00
9:30 AM,77.0,66.2,69,29.98,6.2,NW,6.9,-,N/A,,Partly Cloudy,320,2013-08-23 07:30:00
10:00 AM,78.8,66.2,65,29.98,6.2,NNW,5.8,-,N/A,,Partly Cloudy,330,2013-08-23 08:00:00
10:30 AM,82.4,68.0,62,30.01,6.2,Variable,2.3,-,N/A,,Partly Cloudy,0,2013-08-23 08:30:00
11:00 AM,82.4,68.0,62,30.01,6.2,SSE,5.8,-,N/A,,Scattered Clouds,160,2013-08-23 09:00:00
11:30 AM,82.4,69.8,66,30.01,6.2,SSE,6.9,-,N/A,,Scattered Clouds,160,2013-08-23 09:30:00
12:00 PM,82.4,69.8,66,30.01,6.2,ESE,8.1,-,N/A,,Scattered Clouds,120,2013-08-23 10:00:00
12:30 PM,82.4,71.6,70,30.01,6.2,ESE,10.4,-,N/A,,Scattered Clouds,110,2013-08-23 10:30:00
1:00 PM,82.4,69.8,66,30.01,6.2,ESE,10.4,-,N/A,,Partly Cloudy,110,2013-08-23 11:00:00
1:30 PM,82.4,71.6,70,30.01,6.2,ESE,10.4,-,N/A,,Partly Cloudy,120,2013-08-23 11:30:00
2:00 PM,82.4,71.6,70,30.01,6.2,ESE,10.4,-,N/A,,Scattered Clouds,120,2013-08-23 12:00:00
2:30 PM,82.4,71.6,70,30.01,6.2,SE,9.2,-,N/A,,Scattered Clouds,140,2013-08-23 12:30:00
3:00 PM,82.4,71.6,70,30.01,6.2,SSE,9.2,-,N/A,,Scattered Clouds,150,2013-08-23 13:00:00
3:30 PM,82.4,68.0,62,29.98,6.2,South,9.2,-,N/A,,Scattered Clouds,170,2013-08-23 13:30:00
4:00 PM,84.2,66.2,55,29.98,6.2,SSE,10.4,-,N/A,,Partly Cloudy,160,2013-08-23 14:00:00
4:30 PM,82.4,68.0,62,29.98,6.2,South,9.2,-,N/A,,Partly Cloudy,170,2013-08-23 14:30:00
5:00 PM,84.2,68.0,58,29.98,6.2,South,9.2,-,N/A,,Partly Cloudy,170,2013-08-23 15:00:00
5:30 PM,82.4,66.2,58,29.98,6.2,SSE,9.2,-,N/A,,Partly Cloudy,160,2013-08-23 15:30:00
6:00 PM,82.4,66.2,58,29.98,6.2,South,9.2,-,N/A,,Partly Cloudy,170,2013-08-23 16:00:00
6:30 PM,82.4,68.0,62,29.98,6.2,SSE,8.1,-,N/A,,Partly Cloudy,160,2013-08-23 16:30:00
7:00 PM,82.4,66.2,58,29.95,6.2,South,6.9,-,N/A,,Partly Cloudy,170,2013-08-23 17:00:00
7:30 PM,80.6,66.2,61,29.95,6.2,South,6.9,-,N/A,,Partly Cloudy,180,2013-08-23 17:30:00
8:00 PM,82,69,55,29.97,19,SSW,5.8,,,,Clear,200,2013-08-23 18:00:00
8:00 PM,80.6,66.2,61,29.95,-9999.0,South,6.9,-,N/A,,Clear,190,2013-08-23 18:00:00
8:30 PM,80.6,66.2,61,29.95,-9999.0,SSW,5.8,-,N/A,,Clear,200,2013-08-23 18:30:00
9:00 PM,80.6,68.0,65,29.95,-9999.0,SSW,4.6,-,N/A,,Clear,200,2013-08-23 19:00:00
9:30 PM,78.8,68.0,69,29.98,-9999.0,SSW,5.8,-,N/A,,Clear,200,2013-08-23 19:30:00
10:00 PM,78.8,68.0,69,29.98,-9999.0,SSW,4.6,-,N/A,,Clear,210,2013-08-23 20:00:00
10:30 PM,78.8,68.0,69,29.98,-9999.0,SSW,4.6,-,N/A,,Clear,210,2013-08-23 20:30:00
11:00 PM,78.8,68.0,69,29.98,-9999.0,SSW,5.8,-,N/A,,Clear,210,2013-08-23 21:00:00
11:30 PM,77.0,68.0,74,29.98,-9999.0,SW,4.6,-,N/A,,Clear,220,2013-08-23 21:30:00